Eastman Lake Weather Center

Moon Phase Calendar



Eastman Lake Water Level
Online Cameras

 


      

Current Conditions in Madera
4/19/2024 7:59:09 PM

73°F
Feels Like 74
Clear
Humidity
79%
Pressure
29.85"
Wind
4.2 mph (NW)
Dew Point
66°F
UV Index
0/10 (Low)
Visibility
6 mi

Hourly Forecast

Date & Time Fri, Apr 19
7:00 PM
Fri, Apr 19
8:00 PM
Fri, Apr 19
9:00 PM
Fri, Apr 19
10:00 PM
Fri, Apr 19
11:00 PM
Sat, Apr 20
12:00 AM
Sat, Apr 20
1:00 AM
Sat, Apr 20
2:00 AM
Sat, Apr 20
3:00 AM
Sat, Apr 20
4:00 AM
Sat, Apr 20
5:00 AM
Sat, Apr 20
6:00 AM
Sat, Apr 20
7:00 AM
Sat, Apr 20
8:00 AM
Sat, Apr 20
9:00 AM
Sat, Apr 20
10:00 AM
Sat, Apr 20
11:00 AM
Sat, Apr 20
12:00 PM
Sat, Apr 20
1:00 PM
Sat, Apr 20
2:00 PM
Sat, Apr 20
3:00 PM
Sat, Apr 20
4:00 PM
Sat, Apr 20
5:00 PM
Sat, Apr 20
6:00 PM
Sat, Apr 20
7:00 PM
Sat, Apr 20
8:00 PM
Sat, Apr 20
9:00 PM
Sat, Apr 20
10:00 PM
Sat, Apr 20
11:00 PM
Sun, Apr 21
12:00 AM
Sun, Apr 21
1:00 AM
Sun, Apr 21
2:00 AM
Sun, Apr 21
3:00 AM
Sun, Apr 21
4:00 AM
Sun, Apr 21
5:00 AM
Sun, Apr 21
6:00 AM
Sun, Apr 21
7:00 AM
Sun, Apr 21
8:00 AM
Sun, Apr 21
9:00 AM
Sun, Apr 21
10:00 AM
Sun, Apr 21
11:00 AM
Sun, Apr 21
12:00 PM
Sun, Apr 21
1:00 PM
Sun, Apr 21
2:00 PM
Sun, Apr 21
3:00 PM
Sun, Apr 21
4:00 PM
Sun, Apr 21
5:00 PM
Sun, Apr 21
6:00 PM
Condition
Clear

Clear

Clear

Clear

Clear

Clear

Clear

Clouds

Clouds

Clouds

Clouds

Clouds

Clouds

Clouds

Clouds

Clouds

Clouds

Clouds

Clouds

Clouds

Clouds

Clouds

Clouds

Clear

Clear

Clear

Clear

Clear

Clear

Clear

Clear

Clear

Clear

Clear

Clear

Clear

Clear

Clouds

Clouds

Clouds

Clouds

Clear

Clear

Clear

Clear

Clear

Clear

Clear
Temperature 72°F73°F71°F69°F66°F63°F59°F59°F59°F59°F58°F58°F59°F63°F67°F69°F71°F74°F75°F76°F77°F77°F76°F73°F68°F63°F62°F61°F60°F59°F58°F58°F57°F57°F56°F56°F57°F62°F65°F69°F72°F74°F75°F77°F78°F78°F78°F76°F
Feels Like 73°F74°F72°F69°F66°F63°F59°F59°F59°F58°F58°F57°F58°F62°F66°F69°F71°F74°F74°F76°F77°F77°F76°F73°F68°F63°F61°F60°F59°F58°F58°F57°F56°F56°F56°F55°F56°F61°F64°F68°F71°F73°F75°F77°F78°F78°F77°F76°F
Cloudiness 0%0%0%0%0%0%1%14%16%17%17%15%15%39%37%50%58%93%95%86%66%53%44%0%0%0%0%0%1%2%3%4%4%4%3%0%0%32%50%44%37%6%5%3%2%2%2%0%
Visibility 6 mi6 mi6 mi6 mi6 mi6 mi6 mi6 mi6 mi6 mi6 mi6 mi6 mi6 mi6 mi6 mi6 mi6 mi6 mi6 mi6 mi6 mi6 mi6 mi6 mi6 mi6 mi6 mi6 mi6 mi6 mi6 mi6 mi6 mi6 mi6 mi6 mi6 mi6 mi6 mi6 mi6 mi6 mi6 mi6 mi6 mi6 mi6 mi
Precipitation 0%33%27%21%16%0%0%0%0%0%0%0%0%0%0%0%0%0%0%0%0%0%0%0%0%0%0%0%0%0%0%0%0%0%0%0%0%0%0%0%0%0%0%0%0%0%0%0%
Humidity 77%79%80%82%85%87%90%89%88%87%86%85%82%75%69%67%64%60%55%48%45%43%46%54%66%73%76%78%79%81%81%81%81%82%81%80%79%71%65%60%56%53%51%48%47%46%46%53%
Dew Point 65°F66°F65°F63°F61°F59°F56°F56°F55°F54°F53°F53°F53°F55°F56°F57°F58°F59°F57°F55°F54°F53°F54°F55°F56°F54°F54°F53°F53°F53°F52°F52°F51°F51°F50°F50°F50°F52°F53°F54°F55°F55°F56°F56°F56°F56°F55°F58°F
Pressure 29.85"29.85"29.85"29.88"29.88"29.91"29.91"29.91"29.91"29.91"29.94"29.97"29.97"30"30"30"30.03"30.03"30"30"29.97"29.97"29.94"29.94"29.94"29.97"30"30"30"30.03"30.03"30"30"30"30"30"30"30"30"30"30"29.97"29.97"29.94"29.91"29.88"29.85"29.85"
Wind Speed 6.1 mph4.2 mph3.7 mph3 mph2.5 mph2.6 mph2.8 mph3.9 mph3.4 mph3.3 mph3.1 mph2.9 mph1.8 mph1.5 mph2.5 mph3.8 mph5.3 mph7.1 mph8.9 mph9 mph9.9 mph11 mph11 mph9 mph6.2 mph4.7 mph5.1 mph4.2 mph3.7 mph3.8 mph3.8 mph3.5 mph3 mph3.3 mph3.6 mph3 mph2.4 mph2.2 mph2.9 mph3.3 mph4.4 mph4.9 mph5.3 mph5.5 mph6.5 mph7.1 mph7 mph6 mph
Wind
Direction
296°
WNW
321°
NW

N
14°
NNE

N

N
358°
N
22°
NNE
26°
NNE
12°
NNE

N
24°
NNE
24°
NNE
287°
WNW
273°
W
270°
W
277°
W
279°
W
288°
WNW
292°
WNW
293°
WNW
299°
WNW
301°
WNW
297°
WNW
302°
WNW
331°
NNW

N

N
347°
NNW
346°
NNW
347°
NNW
350°
N
340°
NNW
351°
N
348°
NNW
350°
N
341°
NNW
295°
WNW
281°
W
265°
W
252°
WSW
252°
WSW
265°
W
278°
W
285°
WNW
289°
WNW
292°
WNW
291°
WNW

Daily Forecast

Date High Low Precip. Humidity
Today
Apr 19

Rain
77 °F
59 °F
33%
59%
Saturday
Apr 20

Clouds
77 °F
58 °F
0%
60%
Sunday
Apr 21

Clear
78 °F
56 °F
0%
53%
Monday
Apr 22

Clear
81 °F
58 °F
0%
50%
Tuesday
Apr 23

Clear
71 °F
51 °F
0%
58%
Wednesday
Apr 24

Clouds
68 °F
49 °F
3%
63%
Thursday
Apr 25

Clouds
68 °F
47 °F
0%
59%
Friday
Apr 26

Clouds
66 °F
50 °F
0%
58%
Saturday
Apr 27

Clear
71 °F
48 °F
0%
54%
Sunday
Apr 28

Clouds
70 °F
49 °F
0%
48%
Monday
Apr 29

Clear
70 °F
47 °F
0%
50%
Tuesday
Apr 30

Clear
71 °F
45 °F
0%
48%
Wednesday
May 1

Clear
75 °F
50 °F
0%
44%
Thursday
May 2

Clouds
73 °F
56 °F
0%
39%
Friday
May 3

Clouds
76 °F
57 °F
0%
45%
Saturday
May 4

Clear
78 °F
54 °F
0%
50%

Temperature 8-14 Day Outlook



Precipitation 8-14 Day Outlook




Quick Links
Eastman Lake News
Eastman Lake Photos
Eastman Lake Videos




About Us
Contact Us
Site Map
Search Site
Advertise With Us
   
Eastman.LakesOnline.com
THE EASTMAN LAKE WEBSITE

Copyright 2024, Lakes Online
Privacy    |    Legal